4XDNS LLHA-LLER

Flight info

Callsign 4XDNS
Flight time N/A
Altitude 4000
Route GALIM DAROM HOTRM BOREN FRDIS SDTYM OLGAH PELEG VINGT SFAIM APOLN ARENA HTZUK RIDNG ROKCH PARDS LLBG MRISN NTAIM BOVED NAGID YAVNE ZASHD NMASD ZDAFA NITZA ASKLN GVARM BHAIL BKAMA ZLHAV GORAL NCITY OMMER OHLIM HOVAV NEGEV TLLIM BOKER OVDAT RUHOT MESAR ZZHOR BMNUH YAHEL KTORA YOTVT SAMAR BRORA EILAT BRORA
Aircraft C172/L-VD/A

Departure

Time N/A
Airport Uri Michaeli Haifa International Airport (LLHA)

Arrival

Time 2026-04-26 13:07
Airport Ramon International Airport (LLER)
Time Latitude Longitude Altitude Speed Heading
2026-04-26 11:24 32.14982 34.79099 799 ft 94 kts 192°
2026-04-26 11:25 32.14347 34.78998 824 ft 90 kts 197°
2026-04-26 11:25 32.13802 34.78858 888 ft 74 kts 205°
2026-04-26 11:25 32.13306 34.78615 827 ft 74 kts 213°
2026-04-26 11:25 32.12848 34.78339 781 ft 71 kts 213°
2026-04-26 11:26 32.12422 34.78125 970 ft 68 kts 207°
2026-04-26 11:26 32.11900 34.78090 1054 ft 86 kts 185°
2026-04-26 11:26 32.11339 34.78480 1165 ft 105 kts 129°
2026-04-26 11:26 32.11057 34.79253 1315 ft 103 kts 110°
2026-04-26 11:27 32.10834 34.80042 1445 ft 101 kts 109°
2026-04-26 11:27 32.10572 34.80892 1226 ft 105 kts 110°
2026-04-26 11:27 32.10436 34.81677 1108 ft 97 kts 102°
2026-04-26 11:27 32.10321 34.82495 937 ft 111 kts 103°
2026-04-26 11:28 32.10213 34.83314 1081 ft 91 kts 99°
2026-04-26 11:28 32.10136 34.83995 975 ft 86 kts 113°
2026-04-26 11:28 32.09777 34.84490 1079 ft 74 kts 175°
2026-04-26 11:28 32.09260 34.84482 1114 ft 82 kts 185°
2026-04-26 11:29 32.08742 34.84673 1072 ft 73 kts 163°
2026-04-26 11:29 32.08218 34.84953 1074 ft 85 kts 160°
2026-04-26 11:29 32.07650 34.85216 1156 ft 91 kts 164°
2026-04-26 11:29 32.07072 34.85565 1270 ft 97 kts 155°
2026-04-26 11:30 32.06454 34.85911 1357 ft 99 kts 164°
2026-04-26 11:30 32.06027 34.86046 1426 ft 95 kts 175°
2026-04-26 11:30 32.05137 34.86309 1293 ft 102 kts 174°
2026-04-26 11:30 32.04483 34.86400 1274 ft 91 kts 185°
2026-04-26 11:31 32.03862 34.86490 1245 ft 93 kts 177°
2026-04-26 11:31 32.03206 34.86661 1225 ft 99 kts 169°
2026-04-26 11:31 32.02526 34.86941 1102 ft 110 kts 158°
2026-04-26 11:31 32.02002 34.87565 1087 ft 110 kts 136°
2026-04-26 11:32 32.01578 34.88290 1027 ft 104 kts 131°
2026-04-26 11:32 32.01231 34.88993 916 ft 104 kts 125°
2026-04-26 11:32 32.00843 34.89693 917 ft 105 kts 132°
2026-04-26 11:32 32.00400 34.90406 888 ft 109 kts 130°
2026-04-26 11:33 31.99909 34.90875 956 ft 65 kts 231°
2026-04-26 11:33 31.99594 34.90434 535 ft 85 kts 214°
2026-04-26 11:33 31.99670 34.90061 388 ft 68 kts 314°
2026-04-26 11:33 31.99913 34.89601 224 ft 69 kts 291°
2026-04-26 11:34 32.00146 34.89169 114 ft 52 kts 289°
2026-04-26 11:34 32.00332 34.88761 237 ft 56 kts 289°
2026-04-26 11:34 32.00511 34.88354 324 ft 65 kts 283°
2026-04-26 11:34 32.00682 34.87904 570 ft 60 kts 271°
2026-04-26 11:35 32.00635 34.87373 741 ft 69 kts 253°
2026-04-26 11:35 32.00413 34.86870 964 ft 73 kts 235°
2026-04-26 11:35 32.00066 34.86356 1128 ft 80 kts 237°
2026-04-26 11:35 31.99886 34.86002 1234 ft 75 kts 243°
2026-04-26 11:36 31.99514 34.85179 1326 ft 90 kts 241°
2026-04-26 11:36 31.99185 34.84520 1348 ft 89 kts 243°
2026-04-26 11:36 31.98899 34.83852 1257 ft 94 kts 245°
2026-04-26 11:36 31.98631 34.83176 1166 ft 90 kts 246°
2026-04-26 11:37 31.98351 34.82476 1122 ft 99 kts 247°
2026-04-26 11:37 31.98078 34.81758 1039 ft 97 kts 246°
2026-04-26 11:37 31.97894 34.81071 1111 ft 84 kts 253°
2026-04-26 11:37 31.97757 34.80357 1144 ft 89 kts 255°
2026-04-26 11:38 31.97460 34.79702 1094 ft 93 kts 232°
2026-04-26 11:38 31.96975 34.79203 1103 ft 84 kts 221°
2026-04-26 11:38 31.96515 34.78876 1217 ft 77 kts 216°
2026-04-26 11:38 31.96001 34.78517 988 ft 98 kts 213°
2026-04-26 11:39 31.95342 34.78188 774 ft 109 kts 207°
2026-04-26 11:39 31.94709 34.77871 771 ft 101 kts 207°
2026-04-26 11:39 31.94053 34.77611 737 ft 100 kts 206°
2026-04-26 11:39 31.93381 34.77363 704 ft 101 kts 202°
2026-04-26 11:40 31.92711 34.77091 715 ft 98 kts 207°
2026-04-26 11:40 31.92047 34.76778 697 ft 105 kts 208°
2026-04-26 11:40 31.91383 34.76453 753 ft 105 kts 205°
2026-04-26 11:40 31.90747 34.76159 873 ft 91 kts 203°
2026-04-26 11:41 31.90135 34.76000 909 ft 92 kts 194°
2026-04-26 11:42 31.86498 34.74436 852 ft 78 kts 226°
2026-04-26 11:43 31.86069 34.74063 852 ft 80 kts 214°
2026-04-26 11:43 31.85587 34.73706 860 ft 82 kts 223°
2026-04-26 11:43 31.85086 34.73305 820 ft 91 kts 226°
2026-04-26 11:43 31.84645 34.72780 847 ft 90 kts 234°
2026-04-26 11:44 31.84248 34.72219 877 ft 90 kts 232°
2026-04-26 11:44 31.83794 34.71719 862 ft 90 kts 224°
2026-04-26 11:44 31.83285 34.71313 867 ft 81 kts 234°
2026-04-26 11:44 31.83087 34.70736 842 ft 76 kts 264°
2026-04-26 11:45 31.83041 34.70110 858 ft 79 kts 268°
2026-04-26 11:45 31.83020 34.69463 857 ft 79 kts 266°
2026-04-26 11:45 31.82960 34.68815 855 ft 80 kts 263°
2026-04-26 11:45 31.82903 34.68174 894 ft 78 kts 267°
2026-04-26 11:46 31.82934 34.67536 940 ft 78 kts 275°
2026-04-26 11:46 31.83001 34.66893 943 ft 82 kts 272°
2026-04-26 11:46 31.83020 34.66191 893 ft 90 kts 266°
2026-04-26 11:46 31.83022 34.65494 1054 ft 79 kts 268°
2026-04-26 11:47 31.82959 34.64851 1165 ft 80 kts 256°
2026-04-26 11:47 31.82663 34.64285 1207 ft 84 kts 231°
2026-04-26 11:47 31.82221 34.63745 1056 ft 98 kts 231°
2026-04-26 11:47 31.81780 34.63239 1159 ft 82 kts 230°
2026-04-26 11:48 31.81327 34.62832 1246 ft 79 kts 223°
2026-04-26 11:48 31.80893 34.62427 1245 ft 86 kts 221°
2026-04-26 11:48 31.80399 34.62058 1294 ft 84 kts 217°
2026-04-26 11:48 31.79846 34.61682 1223 ft 91 kts 215°
2026-04-26 11:49 31.79298 34.61408 1310 ft 86 kts 207°
2026-04-26 11:49 31.78716 34.61104 1101 ft 104 kts 215°
2026-04-26 11:49 31.78169 34.60683 950 ft 85 kts 224°
2026-04-26 11:49 31.77746 34.60293 839 ft 80 kts 227°
2026-04-26 11:50 31.77324 34.59875 843 ft 78 kts 227°
2026-04-26 11:50 31.76911 34.59446 912 ft 79 kts 225°
2026-04-26 11:50 31.76422 34.59068 853 ft 95 kts 216°
2026-04-26 11:50 31.75909 34.58649 948 ft 88 kts 217°
2026-04-26 11:51 31.75399 34.58267 985 ft 84 kts 218°
2026-04-26 11:51 31.74851 34.57941 915 ft 93 kts 214°
2026-04-26 11:51 31.74468 34.57734 956 ft 91 kts 213°
2026-04-26 11:51 31.73632 34.57326 923 ft 94 kts 206°
2026-04-26 11:52 31.73245 34.57136 906 ft 96 kts 208°
2026-04-26 11:52 31.72644 34.56818 900 ft 99 kts 212°
2026-04-26 11:52 31.71840 34.56350 923 ft 102 kts 215°
2026-04-26 11:52 31.71237 34.55967 923 ft 93 kts 212°
2026-04-26 11:53 31.70652 34.55680 929 ft 89 kts 206°
2026-04-26 11:53 31.70251 34.55519 873 ft 94 kts 206°
2026-04-26 11:53 31.69638 34.55284 874 ft 89 kts 206°
2026-04-26 11:54 31.68460 34.54818 793 ft 88 kts 210°
2026-04-26 11:54 31.67713 34.54516 1033 ft 84 kts 205°
2026-04-26 11:54 31.67121 34.54369 1175 ft 95 kts 188°
2026-04-26 11:54 31.66461 34.54512 1350 ft 100 kts 163°
2026-04-26 11:55 31.66035 34.54802 1434 ft 105 kts 154°
2026-04-26 11:55 31.65478 34.55280 1685 ft 97 kts 143°
2026-04-26 11:55 31.65138 34.55955 1771 ft 104 kts 105°
2026-04-26 11:55 31.64860 34.56730 1582 ft 124 kts 141°
2026-04-26 11:56 31.64228 34.57306 1611 ft 103 kts 161°
2026-04-26 11:56 31.63412 34.57779 1530 ft 95 kts 166°
2026-04-26 11:56 31.63000 34.57990 1519 ft 96 kts 163°
2026-04-26 11:56 31.62196 34.58459 1523 ft 96 kts 159°
2026-04-26 11:57 31.61816 34.58712 1544 ft 95 kts 154°
2026-04-26 11:57 31.61242 34.59139 1515 ft 97 kts 152°
2026-04-26 11:57 31.60679 34.59612 1502 ft 100 kts 149°
2026-04-26 11:57 31.60090 34.60053 1482 ft 101 kts 155°
2026-04-26 11:58 31.59424 34.60350 1442 ft 102 kts 177°
2026-04-26 11:58 31.58817 34.60788 1394 ft 111 kts 134°
2026-04-26 11:58 31.58200 34.61204 1441 ft 103 kts 164°
2026-04-26 11:58 31.57540 34.61487 1472 ft 100 kts 170°
2026-04-26 11:59 31.56890 34.61781 1665 ft 103 kts 160°
2026-04-26 11:59 31.56256 34.62174 1873 ft 104 kts 156°
2026-04-26 11:59 31.55626 34.62580 2049 ft 104 kts 153°
2026-04-26 11:59 31.55044 34.63103 2195 ft 106 kts 146°
2026-04-26 12:00 31.54540 34.63649 2386 ft 107 kts 139°
2026-04-26 12:00 31.54041 34.64315 2479 ft 115 kts 137°
2026-04-26 12:00 31.53459 34.64953 2585 ft 119 kts 140°
2026-04-26 12:00 31.52837 34.65675 2573 ft 132 kts 137°
2026-04-26 12:01 31.52189 34.66441 2540 ft 135 kts 140°
2026-04-26 12:01 31.51554 34.67138 2588 ft 121 kts 141°
2026-04-26 12:01 31.50938 34.67788 2518 ft 121 kts 142°
2026-04-26 12:01 31.50338 34.68426 2552 ft 115 kts 137°
2026-04-26 12:02 31.49766 34.69161 2412 ft 124 kts 130°
2026-04-26 12:02 31.49262 34.69964 2388 ft 123 kts 128°
2026-04-26 12:02 31.48747 34.70774 2387 ft 126 kts 129°
2026-04-26 12:02 31.48186 34.71559 2528 ft 121 kts 133°
2026-04-26 12:03 31.47642 34.72283 2741 ft 112 kts 136°
2026-04-26 12:03 31.47114 34.72952 2843 ft 116 kts 136°
2026-04-26 12:03 31.46525 34.73615 2930 ft 118 kts 140°
2026-04-26 12:03 31.45913 34.74226 2925 ft 116 kts 146°
2026-04-26 12:04 31.45245 34.74764 2922 ft 114 kts 154°
2026-04-26 12:04 31.44592 34.75294 2905 ft 117 kts 148°
2026-04-26 12:04 31.44019 34.75984 2887 ft 117 kts 143°
2026-04-26 12:04 31.43286 34.76168 2839 ft 110 kts 196°
2026-04-26 12:05 31.42499 34.76175 2822 ft 110 kts 180°
2026-04-26 12:05 31.41815 34.76081 2817 ft 106 kts 189°
2026-04-26 12:05 31.41115 34.76676 2604 ft 135 kts 131°
2026-04-26 12:05 31.40550 34.77324 2911 ft 108 kts 148°
2026-04-26 12:06 31.39932 34.77890 2904 ft 114 kts 147°
2026-04-26 12:06 31.39244 34.78394 2882 ft 119 kts 154°
2026-04-26 12:06 31.38519 34.78907 2918 ft 118 kts 155°
2026-04-26 12:06 31.37785 34.79234 3008 ft 113 kts 176°
2026-04-26 12:07 31.36991 34.79378 3066 ft 114 kts 185°
2026-04-26 12:07 31.36175 34.79334 2980 ft 126 kts 194°
2026-04-26 12:07 31.35300 34.79218 2941 ft 126 kts 194°
2026-04-26 12:07 31.34466 34.79104 3031 ft 118 kts 191°
2026-04-26 12:08 31.33609 34.78948 2851 ft 127 kts 200°
2026-04-26 12:08 31.32734 34.78739 2757 ft 131 kts 193°
2026-04-26 12:08 31.31829 34.78886 2811 ft 124 kts 171°
2026-04-26 12:08 31.31138 34.79098 3111 ft 87 kts 174°
2026-04-26 12:09 31.30554 34.79410 3039 ft 106 kts 150°
2026-04-26 12:09 31.29892 34.79678 2898 ft 105 kts 192°
2026-04-26 12:09 31.29129 34.79624 2909 ft 118 kts 170°
2026-04-26 12:09 31.28387 34.80092 2975 ft 125 kts 147°
2026-04-26 12:10 31.27747 34.80831 2965 ft 136 kts 139°
2026-04-26 12:10 31.27057 34.81628 2920 ft 144 kts 140°
2026-04-26 12:10 31.26256 34.82304 2970 ft 129 kts 159°
2026-04-26 12:10 31.25418 34.82725 3023 ft 130 kts 165°
2026-04-26 12:11 31.24611 34.83112 2681 ft 152 kts 164°
2026-04-26 12:11 31.23615 34.83216 2561 ft 135 kts 196°
2026-04-26 12:11 31.22821 34.83113 3022 ft 85 kts 193°
2026-04-26 12:11 31.22135 34.82982 2848 ft 109 kts 213°
2026-04-26 12:12 31.21409 34.82568 2733 ft 116 kts 214°
2026-04-26 12:12 31.20789 34.82207 3012 ft 86 kts 212°
2026-04-26 12:12 31.20170 34.81818 2886 ft 111 kts 220°
2026-04-26 12:12 31.19722 34.81493 2870 ft 117 kts 220°
2026-04-26 12:13 31.18639 34.80923 2771 ft 132 kts 199°
2026-04-26 12:13 31.17719 34.80842 2838 ft 129 kts 189°
2026-04-26 12:13 31.16894 34.80741 2957 ft 118 kts 195°
2026-04-26 12:13 31.16036 34.80746 2946 ft 126 kts 184°
2026-04-26 12:14 31.15146 34.80795 3047 ft 123 kts 186°
2026-04-26 12:14 31.14208 34.80798 2838 ft 134 kts 186°
2026-04-26 12:14 31.13329 34.80966 2895 ft 131 kts 169°
2026-04-26 12:14 31.12463 34.81291 3003 ft 123 kts 167°
2026-04-26 12:15 31.11729 34.81716 3198 ft 120 kts 158°
2026-04-26 12:15 31.11020 34.82176 3201 ft 121 kts 158°
2026-04-26 12:15 31.10322 34.82693 3214 ft 123 kts 153°
2026-04-26 12:15 31.09655 34.83206 3491 ft 90 kts 153°
2026-04-26 12:16 31.09125 34.83717 3512 ft 104 kts 148°
2026-04-26 12:16 31.08687 34.84468 3444 ft 118 kts 130°
2026-04-26 12:16 31.07991 34.84680 3381 ft 111 kts 195°
2026-04-26 12:16 31.07266 34.84411 3361 ft 109 kts 209°
2026-04-26 12:17 31.06506 34.84090 3218 ft 117 kts 217°
2026-04-26 12:17 31.05877 34.83633 3257 ft 107 kts 224°
2026-04-26 12:17 31.05306 34.83170 3342 ft 94 kts 227°
2026-04-26 12:17 31.04814 34.82756 3445 ft 87 kts 227°
2026-04-26 12:18 31.04322 34.82273 3427 ft 97 kts 227°
2026-04-26 12:18 31.03807 34.81737 3461 ft 100 kts 227°
2026-04-26 12:18 31.03267 34.81211 3466 ft 106 kts 225°
2026-04-26 12:18 31.02679 34.80653 3409 ft 112 kts 227°
2026-04-26 12:19 31.02094 34.80085 3527 ft 106 kts 227°
2026-04-26 12:19 31.01504 34.79577 3484 ft 111 kts 225°
2026-04-26 12:19 31.00951 34.78939 3339 ft 114 kts 239°
2026-04-26 12:19 31.00414 34.78285 3377 ft 113 kts 228°
2026-04-26 12:20 30.99806 34.77757 3403 ft 107 kts 226°
2026-04-26 12:20 30.99225 34.77190 3311 ft 109 kts 236°
2026-04-26 12:20 30.98586 34.76730 3154 ft 130 kts 188°
2026-04-26 12:20 30.97725 34.77048 3271 ft 115 kts 162°
2026-04-26 12:21 30.96924 34.77438 3070 ft 117 kts 162°
2026-04-26 12:21 30.96354 34.77808 3262 ft 109 kts 155°
2026-04-26 12:21 30.95611 34.78317 3084 ft 124 kts 155°
2026-04-26 12:21 30.94796 34.78719 2892 ft 132 kts 170°
2026-04-26 12:22 30.94089 34.78796 3327 ft 57 kts 194°
2026-04-26 12:22 30.93470 34.78625 2909 ft 114 kts 214°
2026-04-26 12:22 30.92956 34.78439 3249 ft 86 kts 201°
2026-04-26 12:22 30.92354 34.78257 3350 ft 72 kts 206°
2026-04-26 12:23 30.91636 34.78138 3031 ft 111 kts 197°
2026-04-26 12:23 30.90843 34.78049 2906 ft 128 kts 192°
2026-04-26 12:23 30.89915 34.78225 2772 ft 144 kts 158°
2026-04-26 12:23 30.89105 34.78972 2565 ft 150 kts 154°
2026-04-26 12:24 30.88303 34.79193 2955 ft 89 kts 204°
2026-04-26 12:24 30.87681 34.79018 2930 ft 96 kts 204°
2026-04-26 12:24 30.86981 34.78763 2840 ft 105 kts 219°
2026-04-26 12:25 30.85672 34.78118 2952 ft 112 kts 206°
2026-04-26 12:25 30.84942 34.78106 3070 ft 114 kts 167°
2026-04-26 12:25 30.84276 34.78685 3016 ft 121 kts 142°
2026-04-26 12:25 30.83571 34.78930 3205 ft 107 kts 179°
2026-04-26 12:26 30.82933 34.79132 3552 ft 86 kts 181°
2026-04-26 12:26 30.82360 34.79292 3725 ft 79 kts 178°
2026-04-26 12:26 30.81824 34.79546 3774 ft 91 kts 167°
2026-04-26 12:26 30.81225 34.79876 3772 ft 102 kts 171°
2026-04-26 12:27 30.80537 34.80169 3743 ft 105 kts 182°
2026-04-26 12:27 30.79864 34.80416 3726 ft 109 kts 172°
2026-04-26 12:27 30.79174 34.80772 3740 ft 97 kts 176°
2026-04-26 12:27 30.78510 34.80763 3729 ft 73 kts 200°
2026-04-26 12:28 30.77979 34.80747 3914 ft 83 kts 194°
2026-04-26 12:28 30.77340 34.80695 3913 ft 98 kts 207°
2026-04-26 12:28 30.76683 34.80401 3854 ft 108 kts 205°
2026-04-26 12:28 30.75949 34.80233 3859 ft 105 kts 204°
2026-04-26 12:29 30.75247 34.80009 3878 ft 98 kts 209°
2026-04-26 12:29 30.74597 34.79829 3928 ft 99 kts 209°
2026-04-26 12:29 30.73222 34.79500 3943 ft 112 kts 192°
2026-04-26 12:30 30.72585 34.79168 3929 ft 92 kts 242°
2026-04-26 12:30 30.71922 34.78855 3768 ft 118 kts 200°
2026-04-26 12:30 30.71154 34.79316 3752 ft 138 kts 146°
2026-04-26 12:31 30.69521 34.79324 3318 ft 143 kts 186°
2026-04-26 12:31 30.68653 34.79873 3512 ft 96 kts 151°
2026-04-26 12:31 30.67987 34.80342 3550 ft 111 kts 180°
2026-04-26 12:31 30.67177 34.80602 3440 ft 124 kts 180°
2026-04-26 12:32 30.66457 34.80902 3917 ft 87 kts 165°
2026-04-26 12:32 30.65750 34.81317 3387 ft 137 kts 168°
2026-04-26 12:32 30.64080 34.82033 3653 ft 108 kts 175°
2026-04-26 12:33 30.63366 34.82444 3482 ft 132 kts 168°
2026-04-26 12:33 30.62541 34.83075 3176 ft 146 kts 154°
2026-04-26 12:33 30.61734 34.83737 3213 ft 142 kts 151°
2026-04-26 12:33 30.60875 34.84387 3111 ft 144 kts 158°
2026-04-26 12:34 30.60063 34.84957 3261 ft 136 kts 158°
2026-04-26 12:34 30.59266 34.85599 3299 ft 140 kts 151°
2026-04-26 12:34 30.58444 34.86203 3348 ft 136 kts 163°
2026-04-26 12:34 30.57604 34.86814 3287 ft 146 kts 144°
2026-04-26 12:35 30.56947 34.87618 3402 ft 139 kts 140°
2026-04-26 12:35 30.56347 34.88527 3376 ft 146 kts 133°
2026-04-26 12:35 30.55654 34.89381 3385 ft 143 kts 140°
2026-04-26 12:35 30.54946 34.90221 3412 ft 145 kts 142°
2026-04-26 12:36 30.54191 34.91020 3279 ft 150 kts 148°
2026-04-26 12:36 30.53364 34.91735 3047 ft 154 kts 151°
2026-04-26 12:36 30.52502 34.92318 3011 ft 138 kts 157°
2026-04-26 12:36 30.51637 34.92782 2894 ft 134 kts 170°
2026-04-26 12:37 30.50763 34.93053 2875 ft 123 kts 183°
2026-04-26 12:37 30.49919 34.93122 2704 ft 122 kts 195°
2026-04-26 12:37 30.49105 34.93313 2786 ft 119 kts 170°
2026-04-26 12:37 30.48357 34.93742 2908 ft 113 kts 154°
2026-04-26 12:38 30.47731 34.94276 3005 ft 111 kts 171°
2026-04-26 12:38 30.46924 34.94582 2797 ft 125 kts 180°
2026-04-26 12:38 30.46141 34.94732 2806 ft 121 kts 181°
2026-04-26 12:38 30.45302 34.94881 2879 ft 116 kts 180°
2026-04-26 12:39 30.44449 34.94887 2833 ft 124 kts 191°
2026-04-26 12:39 30.43642 34.94849 2906 ft 116 kts 189°
2026-04-26 12:39 30.42818 34.95063 2795 ft 134 kts 161°
2026-04-26 12:39 30.41989 34.95353 2811 ft 124 kts 176°
2026-04-26 12:40 30.41118 34.95432 2717 ft 127 kts 185°
2026-04-26 12:40 30.40253 34.95345 2758 ft 117 kts 196°
2026-04-26 12:40 30.39443 34.95259 2652 ft 126 kts 191°
2026-04-26 12:40 30.38519 34.95269 2458 ft 136 kts 181°
2026-04-26 12:41 30.37843 34.95338 2676 ft 107 kts 174°
2026-04-26 12:41 30.37120 34.95500 2596 ft 114 kts 176°
2026-04-26 12:41 30.36323 34.95593 2752 ft 106 kts 184°
2026-04-26 12:41 30.35544 34.95656 2781 ft 121 kts 180°
2026-04-26 12:42 30.34712 34.95956 2773 ft 132 kts 156°
2026-04-26 12:42 30.33807 34.96217 2565 ft 144 kts 181°
2026-04-26 12:42 30.32815 34.96348 2436 ft 145 kts 179°
2026-04-26 12:42 30.31803 34.96527 2243 ft 140 kts 169°
2026-04-26 12:43 30.31027 34.97111 2227 ft 128 kts 153°
2026-04-26 12:43 30.30238 34.97731 2132 ft 136 kts 147°
2026-04-26 12:43 30.29532 34.98473 2086 ft 144 kts 131°
2026-04-26 12:43 30.28873 34.99357 2122 ft 143 kts 131°
2026-04-26 12:44 30.28258 35.00265 2065 ft 141 kts 124°
2026-04-26 12:44 30.27999 35.01288 2205 ft 132 kts 94°
2026-04-26 12:44 30.27882 35.02336 2276 ft 131 kts 92°
2026-04-26 12:44 30.27811 35.03438 2102 ft 138 kts 88°
2026-04-26 12:45 30.27735 35.04512 1960 ft 135 kts 91°
2026-04-26 12:45 30.27625 35.05610 1812 ft 139 kts 91°
2026-04-26 12:45 30.27604 35.06651 1856 ft 122 kts 84°
2026-04-26 12:45 30.27657 35.07654 1708 ft 126 kts 80°
2026-04-26 12:46 30.27736 35.08620 1665 ft 123 kts 85°
2026-04-26 12:46 30.27728 35.09436 2098 ft 88 kts 79°
2026-04-26 12:46 30.27607 35.10276 2000 ft 119 kts 108°
2026-04-26 12:46 30.26962 35.10542 1989 ft 117 kts 220°
2026-04-26 12:47 30.26196 35.10101 1858 ft 126 kts 221°
2026-04-26 12:47 30.25631 35.09309 1824 ft 123 kts 206°
2026-04-26 12:47 30.24851 35.09267 2021 ft 114 kts 193°
2026-04-26 12:47 30.24153 35.08822 1861 ft 125 kts 219°
2026-04-26 12:48 30.23425 35.08337 1985 ft 120 kts 217°
2026-04-26 12:48 30.22567 35.08192 2121 ft 129 kts 184°
2026-04-26 12:48 30.21841 35.08338 2354 ft 125 kts 172°
2026-04-26 12:48 30.20994 35.08550 2486 ft 122 kts 178°
2026-04-26 12:49 30.20112 35.08589 2350 ft 130 kts 193°
2026-04-26 12:49 30.19188 35.08583 2334 ft 130 kts 196°
2026-04-26 12:49 30.18295 35.08421 2326 ft 131 kts 193°
2026-04-26 12:49 30.17456 35.08078 2290 ft 135 kts 202°
2026-04-26 12:50 30.16618 35.07842 2403 ft 123 kts 165°
2026-04-26 12:50 30.15718 35.08037 2306 ft 134 kts 188°
2026-04-26 12:50 30.14793 35.08042 2321 ft 139 kts 176°
2026-04-26 12:50 30.13895 35.08229 2274 ft 137 kts 176°
2026-04-26 12:51 30.13181 35.08543 2667 ft 109 kts 159°
2026-04-26 12:51 30.12433 35.08997 2562 ft 130 kts 158°
2026-04-26 12:51 30.11628 35.09395 2657 ft 126 kts 161°
2026-04-26 12:51 30.10791 35.09848 2476 ft 140 kts 160°
2026-04-26 12:52 30.09926 35.10349 2506 ft 137 kts 157°
2026-04-26 12:52 30.09081 35.10681 2611 ft 118 kts 189°
2026-04-26 12:52 30.08240 35.10740 2387 ft 122 kts 175°
2026-04-26 12:52 30.07426 35.10879 2330 ft 113 kts 188°
2026-04-26 12:53 30.06622 35.10799 2181 ft 123 kts 191°
2026-04-26 12:53 30.05731 35.10786 2064 ft 124 kts 190°
2026-04-26 12:53 30.04925 35.10608 2121 ft 119 kts 204°
2026-04-26 12:53 30.04153 35.10436 2295 ft 112 kts 199°
2026-04-26 12:54 30.03380 35.10168 2166 ft 116 kts 206°
2026-04-26 12:54 30.02625 35.09901 2232 ft 111 kts 201°
2026-04-26 12:54 30.01854 35.09722 2243 ft 119 kts 193°
2026-04-26 12:54 30.01142 35.09381 2224 ft 113 kts 208°
2026-04-26 12:55 30.00471 35.09030 2338 ft 104 kts 214°
2026-04-26 12:55 29.99896 35.08636 2413 ft 98 kts 215°
2026-04-26 12:55 29.99191 35.08320 2337 ft 102 kts 206°
2026-04-26 12:55 29.98607 35.08115 2459 ft 94 kts 204°
2026-04-26 12:56 29.97949 35.07925 2324 ft 101 kts 204°
2026-04-26 12:56 29.97211 35.07629 2225 ft 93 kts 202°
2026-04-26 12:56 29.96658 35.07469 2462 ft 98 kts 197°
2026-04-26 12:56 29.95931 35.07288 2372 ft 119 kts 192°
2026-04-26 12:57 29.95072 35.07236 2193 ft 126 kts 201°
2026-04-26 12:57 29.94467 35.07004 2437 ft 104 kts 200°
2026-04-26 12:57 29.93747 35.06909 2473 ft 89 kts 191°
2026-04-26 12:58 29.92213 35.06730 2270 ft 119 kts 198°
2026-04-26 12:58 29.91467 35.06590 2360 ft 104 kts 193°
2026-04-26 12:58 29.90715 35.06267 2115 ft 119 kts 203°
2026-04-26 12:58 29.90030 35.05989 2319 ft 89 kts 200°
2026-04-26 12:59 29.89371 35.05642 2049 ft 117 kts 218°
2026-04-26 12:59 29.88720 35.05125 2079 ft 114 kts 220°
2026-04-26 12:59 29.88297 35.04629 2238 ft 91 kts 217°
2026-04-26 12:59 29.87716 35.04342 2340 ft 87 kts 198°
2026-04-26 13:00 29.87071 35.04165 2201 ft 105 kts 197°
2026-04-26 13:00 29.86426 35.03964 2250 ft 96 kts 199°
2026-04-26 13:00 29.85737 35.03757 2084 ft 104 kts 197°
2026-04-26 13:00 29.85129 35.03596 2233 ft 95 kts 192°
2026-04-26 13:01 29.84415 35.03533 2114 ft 110 kts 185°
2026-04-26 13:01 29.83658 35.03503 2094 ft 109 kts 182°
2026-04-26 13:01 29.82941 35.03389 2223 ft 99 kts 194°
2026-04-26 13:01 29.82264 35.03168 2068 ft 114 kts 200°
2026-04-26 13:02 29.81581 35.02910 2312 ft 94 kts 195°
2026-04-26 13:02 29.80957 35.02779 2299 ft 82 kts 188°
2026-04-26 13:02 29.80279 35.02625 2116 ft 109 kts 191°
2026-04-26 13:02 29.79576 35.02419 2249 ft 103 kts 196°
2026-04-26 13:03 29.78885 35.02215 2251 ft 106 kts 195°
2026-04-26 13:03 29.78189 35.01932 2196 ft 109 kts 202°
2026-04-26 13:03 29.77490 35.01558 2212 ft 99 kts 204°
2026-04-26 13:03 29.76927 35.01156 2359 ft 96 kts 213°
2026-04-26 13:04 29.76320 35.00806 2379 ft 106 kts 202°
2026-04-26 13:04 29.75638 35.00474 2386 ft 106 kts 206°
2026-04-26 13:04 29.75013 35.00056 2417 ft 104 kts 207°
2026-04-26 13:04 29.74377 34.99605 2350 ft 112 kts 207°
2026-04-26 13:05 29.73753 34.99126 2387 ft 99 kts 204°
2026-04-26 13:05 29.73134 34.98836 2318 ft 103 kts 193°
2026-04-26 13:05 29.72431 34.98732 2357 ft 97 kts 181°
2026-04-26 13:05 29.71747 34.98801 2276 ft 106 kts 175°
2026-04-26 13:06 29.70989 34.98865 2067 ft 97 kts 175°
2026-04-26 13:06 29.70532 34.99221 1788 ft 86 kts 129°
2026-04-26 13:06 29.70409 35.00019 1374 ft 109 kts 101°
2026-04-26 13:06 29.70580 35.00742 825 ft 75 kts 35°
2026-04-26 13:07 29.71286 35.01019 307 ft 93 kts 17°
2026-04-26 13:07 29.71786 35.01179 296 ft 57 kts
2026-04-26 13:07 29.72100 35.01237 299 ft 33 kts
2026-04-26 13:07 29.72205 35.01184 296 ft 15 kts 286°
2026-04-26 13:08 29.72220 35.01059 294 ft 15 kts 264°
2026-04-26 13:08 29.72225 35.00958 294 ft 14 kts 278°
2026-04-26 13:08 29.72246 35.00854 293 ft 12 kts 275°
2026-04-26 13:08 29.72188 35.00810 293 ft 14 kts 190°
2026-04-26 13:09 29.72106 35.00797 291 ft 8 kts 210°
2026-04-26 13:09 29.72114 35.00764 291 ft 4 kts